Home   Weather   Spain   Cadiz   Past weeks
Flag for Spain

Past Weather in Cadiz, Cádiz, Spain — Yesterday and Last 2 Weeks

Currently: 63 °F. Passing clouds. (Weather station: Rota Airport, Spain). See more current weather

Past Weather in Cadiz — Graph

°F

Cadiz Temperature Yesterday

Maximum temperature yesterday: 59 °F (at 2:00 pm)
Minimum temperature yesterday: 54 °F (at 12:00 am)
Average temperature yesterday: 56 °F

High & Low Weather Summary for the Past Weeks

 TemperatureHumidityPressure
High68 °F (Feb 23, 2:00 pm)100% (Feb 21, 6:30 am)30.45 "Hg (Feb 21, 6:30 am)
Low43 °F (Feb 22, 7:30 am)37% (Feb 23, 2:30 pm)29.65 "Hg (Feb 21, 7:00 am)
Average58 °F80%30.12 "Hg
* Reported Feb 20 5:00 pm — Mar 7 5:30 pm, Cadiz. Weather by CustomWeather, © 2021

Note: Actual official high and low records may vary slightly from our data, if they occured in-between our weather recording intervals... More about our weather records

Cadiz Weather History for the Previous 24 Hours

Scroll right to see more
 ConditionsComfort  
Time TempWeatherWind HumidityBarometerVisibility
5:30 pm
Sun, Mar 7
61 °FPassing clouds.12 mph83%29.98 "HgN/A
5:00 pm63 °FPassing clouds.12 mph77%29.98 "HgN/A
4:30 pm63 °FPassing clouds.12 mph77%29.98 "HgN/A
4:00 pm63 °FPassing clouds.10 mph77%30.01 "HgN/A
3:30 pm63 °FScattered clouds.10 mph83%30.01 "HgN/A
3:00 pm63 °FScattered clouds.9 mph77%30.01 "HgN/A
2:30 pm61 °FScattered clouds.10 mph83%30.04 "HgN/A
2:00 pm63 °FScattered clouds.9 mph77%30.04 "HgN/A
1:30 pm63 °FScattered clouds.8 mph83%30.04 "Hg6 mi
1:00 pm61 °FBroken clouds.7 mph88%30.07 "Hg4 mi
12:30 pm61 °FBroken clouds.7 mph88%30.07 "Hg4 mi
12:00 pm61 °FBroken clouds.3 mph88%30.07 "Hg4 mi
11:30 am59 °FBroken clouds.2 mph94%30.07 "Hg4 mi
11:00 am59 °FPartly sunny.No wind94%30.07 "Hg4 mi
10:30 am57 °FPartly sunny.No wind94%30.07 "Hg4 mi
10:00 am55 °FPartly sunny.2 mph100%30.07 "Hg4 mi
9:30 am55 °FPartly sunny.2 mph100%30.07 "Hg4 mi
9:00 am55 °FPartly sunny.1 mph100%30.07 "Hg4 mi
8:30 am55 °FPartly sunny.2 mph94%30.07 "Hg4 mi
8:00 am55 °FMostly cloudy.1 mph94%30.04 "Hg4 mi
7:30 am55 °FMostly cloudy.1 mph94%30.04 "Hg6 mi
7:00 am55 °FPassing clouds.1 mph94%30.04 "Hg5 mi
6:30 am54 °FOvercast.5 mph100%30.04 "Hg4 mi
6:00 am55 °FPassing clouds.No wind94%30.01 "Hg4 mi
5:30 am55 °FPassing clouds.No wind94%30.04 "Hg4 mi
5:00 am55 °FPassing clouds.No wind94%30.04 "Hg5 mi
4:30 am55 °FPassing clouds.1 mph94%30.04 "Hg6 mi
3:30 am55 °FPassing clouds.2 mph94%30.04 "Hg6 mi
3:00 am55 °FPassing clouds.5 mph94%30.04 "Hg6 mi
2:30 am55 °FLight rain. Passing clouds.3 mph94%30.04 "Hg6 mi
2:00 am55 °FLight rain. Passing clouds.6 mph94%30.04 "Hg6 mi
1:30 am55 °FLight rain. Passing clouds.6 mph94%30.07 "Hg6 mi
1:00 am55 °FMostly cloudy.5 mph100%30.07 "Hg6 mi
12:30 am55 °FDrizzle. Overcast.5 mph94%30.07 "Hg6 mi
12:00 am57 °FOvercast.6 mph88%30.07 "Hg6 mi
11:30 pm
Sat, Mar 6
57 °FDrizzle. Mostly cloudy.5 mph94%30.07 "Hg6 mi
11:00 pm55 °FPassing clouds.6 mph94%30.07 "Hg6 mi
10:30 pm57 °FOvercast.6 mph94%30.07 "Hg6 mi
10:00 pm55 °FOvercast.7 mph100%30.07 "Hg6 mi
9:30 pm55 °FLight rain. Overcast.7 mph100%30.07 "Hg6 mi
9:00 pm55 °FLight rain. Passing clouds.6 mph100%30.07 "Hg6 mi
8:30 pm57 °FLight rain. Overcast.5 mph88%30.04 "Hg5 mi
8:00 pm57 °FPassing clouds.6 mph94%30.04 "Hg6 mi
7:30 pm57 °FPassing clouds.7 mph94%30.04 "Hg6 mi
7:00 pm57 °FPartly sunny.6 mph94%30.01 "Hg6 mi
6:30 pm57 °FPartly sunny.6 mph94%30.01 "HgN/A
6:00 pm57 °FPartly sunny.5 mph94%30.01 "HgN/A
Weather by CustomWeather, © 2021

See weather overview